Fullerton, CA

12:52 AM PST on December 17, 2017 (GMT -0800)
Fullerton Municipal

Weather History for KFUL - May, 2012

Change the Weather History Date:

Monday, May 28, 2012

  Actual Average Record
Temperature  
Mean Temperature 71 °F 67 °F  
Max Temperature 83 °F 75 °F 91 °F (2003)
Min Temperature 58 °F 59 °F 52 °F (2008)
Degree Days  
Heating Degree Days 0 0  
Month to date heating degree days 3 31  
Since 1 July heating degree days 863 1225  
Cooling Degree Days 6 3  
Month to date cooling degree days 124 62  
Year to date cooling degree days 235 114  
Growing Degree Days 22 (Base 50)    
Moisture  
Dew Point 54 °F    
Average Humidity 56    
Maximum Humidity 75    
Minimum Humidity 37    
Precipitation  
Precipitation 0.00 in 0.00 in 0.11 in (1971)
Month to date precipitation T 0.24  
Year to date precipitation 3.53 9.55  
Since 1 July precipitation 6.20  
Snow  
Snow 0.00 in - - ()
Month to date snowfall 0.0  
Year to date snowfall 0.0  
Snow Depth 0.00 in    
Sea Level Pressure  
Sea Level Pressure 29.92 in    
Wind  
Wind Speed 3 mph (South)    
Max Wind Speed 13 mph    
Max Gust Speed 18 mph    
Visibility 10 miles    
Events      
T = Trace of Precipitation, MM = Missing Value Source: NWS Daily Summary

Daily Weather History Graph

Daily Weather History Graph

Search for Another Location

Airport or City:

Trip Planner

Search our weather history database for the weather conditions in past years. The results will help you decide how hot, cold, wet, or windy it might be!

Date:

Astronomy

May. 28, 2012 Rise Set
Actual Time 5:43 AM PDT 7:55 PM PDT
Civil Twilight 5:14 AM PDT 8:24 PM PDT
Nautical Twilight 4:39 AM PDT 8:59 PM PDT
Astronomical Twilight 4:02 AM PDT 9:36 PM PDT
Moon 12:44 PM PDT (5/28) 12:47 AM PDT (5/28)
Length of Visible Light 15h 09m
Length of Day
14h 12m
Waxing Crescent, 49% of the Moon is Illuminated
May 28
Waxing Crescent
May 28
First Quarter
Jun 4
Full
Jun 11
Last Quarter
Jun 19
New

Hourly Weather History & Observations

Time (PDT) Temp. Heat Index Dew Point Humidity Pressure Visibility Wind Dir Wind Speed Gust Speed Precip Events Conditions
12:53 AM 63.0 °F - 54.0 °F 72% 29.95 in 10.0 mi Calm Calm - N/A   Clear
1:53 AM 63.0 °F - 54.0 °F 72% 29.94 in 10.0 mi Calm Calm - N/A   Clear
2:53 AM 61.0 °F - 52.0 °F 72% 29.94 in 10.0 mi Calm Calm - N/A   Clear
3:53 AM 61.0 °F - 52.0 °F 72% 29.93 in 10.0 mi Calm Calm - N/A   Clear
4:53 AM 59.0 °F - 51.1 °F 75% 29.93 in 10.0 mi Calm Calm - N/A   Clear
5:53 AM 59.0 °F - 52.0 °F 78% 29.93 in 10.0 mi Calm Calm - N/A   Clear
6:53 AM 62.1 °F - 52.0 °F 70% 29.94 in 10.0 mi Calm Calm - N/A   Clear
7:53 AM 64.9 °F - 55.0 °F 70% 29.94 in 10.0 mi Calm Calm - N/A   Clear
8:53 AM 66.9 °F - 55.0 °F 66% 29.96 in 10.0 mi Calm Calm - N/A   Clear
9:53 AM 71.1 °F - 54.0 °F 55% 29.95 in 10.0 mi Calm Calm - N/A   Clear
10:53 AM 75.9 °F - 54.0 °F 46% 29.94 in 10.0 mi Variable 5.8 mph - N/A   Clear
11:53 AM 75.9 °F - 55.9 °F 50% 29.94 in 10.0 mi Variable 6.9 mph - N/A   Clear
12:53 PM 79.0 °F - 55.9 °F 45% 29.93 in 10.0 mi Variable 6.9 mph - N/A   Clear
1:53 PM 82.0 °F 81.4 °F 55.0 °F 39% 29.91 in 10.0 mi Variable 4.6 mph - N/A   Clear
2:53 PM 81.0 °F 81.0 °F 57.0 °F 44% 29.90 in 10.0 mi SW 8.1 mph - N/A   Clear
3:53 PM 81.0 °F 81.0 °F 57.0 °F 44% 29.89 in 10.0 mi South 10.4 mph - N/A   Clear
4:53 PM 82.0 °F 81.3 °F 54.0 °F 38% 29.88 in 10.0 mi SSW 8.1 mph - N/A   Clear
5:53 PM 84.0 °F - 44.1 °F 25% 29.87 in 10.0 mi Variable 4.6 mph - N/A   Clear
6:53 PM 81.0 °F - 44.1 °F 27% 29.87 in 10.0 mi Variable 3.5 mph - N/A   Clear
7:53 PM 73.0 °F - 57.0 °F 57% 29.88 in 10.0 mi South 6.9 mph - N/A   Clear
8:53 PM 69.1 °F - 57.9 °F 68% 29.90 in 10.0 mi South 6.9 mph - N/A   Clear
9:53 PM 66.9 °F - 57.9 °F 73% 29.92 in 10.0 mi SSE 5.8 mph - N/A   Clear
10:53 PM 66.0 °F - 57.9 °F 75% 29.92 in 10.0 mi South 4.6 mph - N/A   Clear
11:53 PM 64.9 °F - 57.9 °F 78% 29.92 in 10.0 mi Calm Calm - N/A   Clear